Location: ?????????
(38.1675°N, 23.3988°E)
Time: 01:09:41
(UTC+00:00)

Daily predictions for brighter satellites

Satellite Brightness Start Highest point End
(mag) Time Altitude Azimuth Time Altitude Azimuth Time Altitude Azimuth
ATLAS 2AS CENTAUR R/B 4.4 01:22:05 23° NNW 01:22:05 23° NNW 01:26:07 10° NNE
ATLAS 3B R/B 4.1 01:27:32 30° SSE 01:27:32 30° SSE 01:30:55 10° SSE
BREEZE-M DEB (TANK) 4.2 01:33:36 57° E 01:33:36 57° E 01:43:51 10° NE
CZ-2C R/B 4.3 01:35:24 10° NNE 01:38:52 39° N 01:38:52 39° N
Cosmos 1867 4.1 01:52:32 46° N 01:53:48 57° NE 01:59:08 10° SE
GP-B 3.9 02:00:52 48° NE 02:00:52 48° NE 02:04:35 10° N
NOSS 3-1 (A) 4.0 01:55:42 16° NW 02:02:22 83° WSW 02:11:32 10° SSE
Meteor 1-10 Rocket 4.2 02:02:12 74° SE 02:02:35 79° E 02:08:08 10° NNE
Sich 1 3.8 02:00:03 10° N 02:04:17 49° E 02:04:47 47° ESE
USA 281 4.4 02:03:07 10° N 02:07:16 26° NW 02:07:16 26° NW
BlueWalker 3 3.1 02:13:43 40° NE 02:13:43 40° NE 02:17:03 10° ESE
IRS-1D 4.1 02:09:41 10° N 02:13:40 46° NNW 02:13:40 46° NNW
Cosmos 2297 Rocket 2.6 02:13:12 31° S 02:15:46 60° ESE 02:21:20 10° NNE
Envisat 2.8 02:12:18 10° N 02:17:23 82° WNW 02:17:37 79° WSW
Nadezhda 2 Rocket 4.5 02:23:50 43° SW 02:25:53 65° W 02:32:17 10° N
Cosmos 2237 Rocket 3.4 02:24:33 10° N 02:29:56 42° ENE 02:35:16 10° SE
METEOR-M 4.5 02:27:51 10° N 02:32:41 44° WNW 02:32:41 44° WNW
Cosmos 1536 3.7 02:29:45 10° N 02:39:26 - S 02:32:05 35° N
OAO 2 Rocket 4.5 02:36:29 27° S 02:36:29 27° S 02:40:04 10° SE
Delta 2 Rocket 4.3 02:36:56 39° SSW 02:37:03 39° SSW 02:41:49 10° SE
YAOGAN 11 4.1 02:36:40 10° S 02:41:07 60° W 02:45:31 10° NNW
Okean 1 3.0 02:40:43 57° SSW 02:41:27 86° W 02:45:18 10° N
Cosmos 2322 4.0 02:43:22 39° W 02:44:06 41° WSW 02:49:22 10° S
SL-08 R/B 4.4 02:41:15 24° SSW 02:44:51 56° W 02:50:51 10° N
Nadezhda 1 Rocket 4.0 02:43:29 10° N 02:49:47 86° E 02:55:56 10° S
COBE Rocket 4.0 02:45:48 10° N 02:50:31 52° WNW 02:52:53 28° SW
Cosmos 1726 3.9 02:48:30 10° NNE 02:51:35 30° ENE 02:54:38 10° SE
NOSS 0 Rocket 3.8 02:45:22 10° NNW 02:51:37 79° WSW 02:57:50 10° SSE
H-2A R/B 3.0 02:48:39 10° NNE 02:52:05 58° E 02:55:30 10° S
COSMOS 2428 2.9 02:47:19 10° NW 02:52:43 45° WSW 02:58:07 10° S
ERS-2 3.8 02:51:49 10° NE 02:54:37 29° E 02:57:23 10° SSE
USA 215 3.3 02:48:42 10° SE 02:55:15 80° NE 03:01:49 10° NW
CBERS-1 4.1 02:50:26 10° N 02:55:23 51° WNW 02:58:27 22° SW
Cosmos 1151 Rocket 3.3 02:54:47 39° WSW 02:55:45 45° W 02:59:58 10° N
CZ-2C R/B 3.5 02:53:42 10° NNW 02:56:50 24° NW 02:56:50 24° NW
Cosmos 2227 Rocket 2.2 02:56:53 10° SSW 03:02:32 83° ESE 03:08:14 10° NNE
Meteor 2-20 Rocket 4.5 02:58:26 10° N 03:04:40 84° E 03:10:36 10° S
Cosmos 2263 Rocket 4.5 03:01:22 10° SSE 03:05:54 26° ESE 03:10:25 10° NE
Cosmos 1328 Rocket 3.4 03:02:14 10° S 03:06:39 78° W 03:11:03 10° N
Cosmos 44 Rocket 4.0 03:05:11 28° W 03:07:05 38° NW 03:11:54 10° NNE
ARIANE 5 R/B 2.5 03:03:40 10° NNE 03:08:42 83° ESE 03:13:41 10° SSW
Meteor 1-27 Rocket 4.0 03:04:34 13° SW 03:09:13 43° WNW 03:14:39 10° N
Cosmos 1733 4.3 03:06:51 10° N 03:10:25 45° E 03:13:56 10° SSE
Cosmos 1666 Rocket 3.4 03:06:08 10° N 03:10:30 75° W 03:14:48 10° S
DMSP B5D2-2 4.0 03:06:51 10° S 03:12:02 63° W 03:17:17 10° NNW
Meteor 2-20 4.5 03:06:51 10° NNW 03:12:53 58° W 03:18:51 10° S
ATLAS 3B R/B 4.4 03:14:59 15° WSW 03:14:59 15° WSW 03:17:21 10° SW
Meteor 1-19 Rocket 4.4 03:13:29 10° SSW 03:18:49 45° WNW 03:24:04 10° N
Cosmos 1709 Rocket 4.0 03:13:15 10° SSW 03:19:36 75° W 03:26:00 10° N
Helios 1A 2.9 03:17:04 10° S 03:21:07 62° W 03:25:10 10° NNW
CZ-2D R/B 3.6 03:18:28 10° NNE 03:22:50 82° ESE 03:27:11 10° S
Cosmos 1269 Rocket 3.9 03:21:13 10° NNW 03:26:29 73° WSW 03:31:43 10° S
IRS-P3 4.1 03:21:15 10° N 03:26:35 75° WNW 03:31:53 10° SSW
Meteor 2-4 Rocket 3.8 03:23:20 10° S 03:29:16 82° W 03:35:08 10° N
Cosmos 614 Rocket 4.1 03:27:23 10° NNW 03:32:22 51° WSW 03:37:22 10° S
Cosmos 1980 3.9 03:30:24 10° NNW 03:35:51 50° WSW 03:41:17 10° S
Cosmos 1805 3.5 03:33:02 10° N 03:36:49 68° E 03:40:33 10° SSE
USA 229 DEB 4.4 03:29:41 10° NW 03:36:51 44° WSW 03:44:24 10° S
USA 229 4.3 03:29:46 10° NW 03:36:57 44° WSW 03:44:29 10° S
Cosmos 1633 Rocket 3.4 03:34:57 10° NNW 03:39:06 42° W 03:43:15 10° SSW
Meteor 1-18 Rocket 4.3 03:34:15 10° SSW 03:40:06 71° W 03:45:54 10° N
Cosmos 1484 Rocket 4.3 03:40:19 10° NNW 03:42:35 16° WNW 03:44:39 11° WSW
ATLAS CENTAUR R/B 3.3 03:39:36 10° N 03:42:40 26° NE 03:45:42 10° ESE
H-2A R/B 2.1 03:39:10 10° N 03:44:34 69° WNW 03:49:52 10° SSW
Aureole 3 4.1 03:46:06 10° SSE 03:48:59 42° E 03:51:49 10° NNE
NOSS 3-3 (A) 4.2 03:46:09 10° SSW 03:51:21 65° ESE 03:57:19 10° NE
NOSS 3-3 (C) 4.2 03:46:12 10° SSW 03:51:23 64° ESE 03:57:20 10° NE
BlueWalker 3 3.2 03:48:35 10° WNW 03:51:38 23° SW 03:54:42 10° S
PSLV R/B 3.5 03:51:59 10° NNE 03:56:08 85° ESE 04:00:16 10° SSW
SKYMED 2 3.5 03:52:17 10° S 03:56:36 71° WSW 04:00:57 10° NNW
Cosmos 2251 Rocket 4.5 03:53:01 10° N 03:58:09 53° ENE 04:03:15 10° SE
SAR-Lupe-2 3.7 03:54:45 10° NNE 03:58:20 80° ESE 04:01:54 10° S
CZ-2C R/B 4.1 03:55:30 10° NNE 03:59:05 43° E 04:02:34 10° S
Cosmos 2074 Rocket 4.2 03:54:02 10° S 04:00:12 79° E 04:06:26 10° N
Cosmos 2297 Rocket 3.6 03:56:13 10° W 04:00:14 20° NW 04:04:16 10° N
